STARLINK-3856, 52459

Orbit data source: Space-Track

STARLINK-3856, 52459 is a payload satellite owned by SpaceX/Seattle (US) in LEO that was launched on Fri, 06 May 2022 UTC via an FALCON 9 launch vehicle from the Air Force Eastern Test Range (AFETR). Payload-class satellites include a variety of spacecraft equipped with specific instruments for various scientific and technological missions. These include communications satellites like Starlink; space stations such as the ISS; scientific satellites like the Hubble; Earth observation satellites from companies like Planet Labs, Umbra, and HawkEye 360; GPS; miniature CubeSats for education and research; and military/defense satellites.

Loading next visibility...
Identifier
52459, 2022-049J
Orbit
LEO
Country
Flag of USUS
Related business
Manufacturer
SpaceX/Seattle
Mission
Operational Commercial Communications
Bus & Motor
STARLINK, Unknown motor
Mass
297 kg wet, ~220 kg dry
Launch date (UTC)
2022-05-06 (4 years ago)
Launch vehicle
FALCON 9
Launch site
Air Force Eastern Test Range (AFETR)
Object type
Payload
Rocket body
Debris
Shape & HBR
Box + 1 Pan, 10.1 m
Radar Cross Section
13.562 m², Large (>1 m²)

Expand to show TLE details & history
Last TLE update: 22 hours ago

TLE from 22 hours ago
0 STARLINK-3856
1 52459U 22049J   26193.47234273 -.00001513  00000-0 -76931-4 0  9997
2 52459  53.1572 218.7035 0002196  61.4553 298.6659 15.08839542231082
Epoch: 2026-07-12T11:20Z
TLE epoch observation values (Epoch: 2026-07-12T11:20:10.411Z)
Latitude
-0.00006°
Longitude
118.28936°
Altitude
539.907 km
Speed
7.594 km/s
True Right ascension
14h 34m 48s
True Declination
0° 00' 00"
Sunlit
Object was in daylight at epoch
Visualization orbit readout
Latitude
Unknown
Longitude
Unknown
Altitude
Unknown
Speed
Unknown
Apparent Right ascension
Unknown
Apparent Declination
Unknown
Sunlit
N/A
Visualization observer readout
Local Sidereal Time
21:59:46
Azimuth
Unknown
Elevation
Unknown
Doppler factor
Unknown
Orbital elements
Apogee altitude
541.519 km
Perigee altitude
538.48 km
Semi-major axis
6,918.136 km
Eccentricity
0.00022
Inclination
53.1572°
RAAN
218.7035°
Arg. of periapsis
61.4553°
True anomaly
298.64382°
Mean anomaly
298.6659°
Eccentric anomaly
298.65486°
Mean motion
3.77189 °/min
Orbital period
95.44 mins
BSTAR
-0.000076931
Loading maneuver chart data...
Computing Atmospheric mass density...
Loading historical data...
Loading historical data...
Loading historical data...
Loading historical data...
Loading historical data...
Loading historical data...
Loading historical data...

Documentation

Showing up to 5 results
|